ROA3078 SABE-SAME

Flight info

Callsign ROA3078
Flight time N/A
Altitude 36000
Route PAL9XNEPIS/31 NEPIS DCT NIN UL405 PAPIR PAPIR3Q
Aircraft B738/M-SDE2E3FGHIRWXY/LB1

Departure

Time N/A
Airport Aeroparque Jorge Newbery (SABE)

Arrival

Time 2026-04-25 20:24
Airport Governor Francisco Gabrielli International Airport (SAME)
Time Latitude Longitude Altitude Speed Heading
2026-04-25 19:22 -34.28373 -62.52891 36047 ft 369 kts 279°
2026-04-25 19:23 -34.27859 -62.55942 36037 ft 370 kts 279°
2026-04-25 19:23 -34.26317 -62.65077 36027 ft 372 kts 280°
2026-04-25 19:24 -34.25281 -62.71191 36018 ft 370 kts 280°
2026-04-25 19:25 -34.23319 -62.82718 36044 ft 369 kts 280°
2026-04-25 19:25 -34.22287 -62.88757 36039 ft 370 kts 279°
2026-04-25 19:26 -34.21240 -62.94859 36034 ft 371 kts 280°
2026-04-25 19:26 -34.20192 -63.00954 36039 ft 371 kts 280°
2026-04-25 19:27 -34.19495 -63.04997 36036 ft 371 kts 280°
2026-04-25 19:27 -34.18090 -63.13122 36045 ft 371 kts 280°
2026-04-25 19:28 -34.17031 -63.19229 36042 ft 371 kts 280°
2026-04-25 19:28 -34.15968 -63.25350 36004 ft 372 kts 279°
2026-04-25 19:29 -34.14976 -63.31052 36033 ft 371 kts 279°
2026-04-25 19:29 -34.13976 -63.36748 36042 ft 370 kts 280°
2026-04-25 19:30 -34.12804 -63.42802 36052 ft 370 kts 281°
2026-04-25 19:30 -34.11590 -63.48844 36048 ft 371 kts 281°
2026-04-25 19:31 -34.10410 -63.54772 36049 ft 372 kts 281°
2026-04-25 19:31 -34.09257 -63.60599 36053 ft 372 kts 281°
2026-04-25 19:32 -34.08063 -63.66632 36051 ft 372 kts 281°
2026-04-25 19:32 -34.07255 -63.70706 36050 ft 373 kts 281°
2026-04-25 19:33 -34.05648 -63.78805 36058 ft 374 kts 281°
2026-04-25 19:33 -34.04432 -63.84893 36047 ft 372 kts 281°
2026-04-25 19:34 -34.03219 -63.90953 36058 ft 371 kts 281°
2026-04-25 19:34 -34.02005 -63.97007 36058 ft 371 kts 281°
2026-04-25 19:35 -34.00852 -64.02766 36059 ft 371 kts 281°
2026-04-25 19:35 -33.99642 -64.08804 36065 ft 371 kts 281°
2026-04-25 19:36 -33.98427 -64.14859 36056 ft 371 kts 281°
2026-04-25 19:36 -33.97209 -64.20909 36068 ft 372 kts 281°
2026-04-25 19:37 -33.96021 -64.26797 36064 ft 372 kts 281°
2026-04-25 19:37 -33.94772 -64.32972 36060 ft 373 kts 281°
2026-04-25 19:38 -33.93544 -64.39033 36053 ft 372 kts 281°
2026-04-25 19:38 -33.92316 -64.45089 36061 ft 372 kts 281°
2026-04-25 19:39 -33.91078 -64.51147 36063 ft 373 kts 281°
2026-04-25 19:39 -33.89825 -64.57201 36062 ft 373 kts 281°
2026-04-25 19:40 -33.88568 -64.63254 36063 ft 373 kts 281°
2026-04-25 19:40 -33.87320 -64.69275 36063 ft 373 kts 281°
2026-04-25 19:41 -33.86065 -64.75331 36057 ft 373 kts 281°
2026-04-25 19:41 -33.85218 -64.79383 36057 ft 373 kts 281°
2026-04-25 19:42 -33.83533 -64.87454 36060 ft 373 kts 281°
2026-04-25 19:42 -33.82268 -64.93509 36060 ft 373 kts 281°
2026-04-25 19:43 -33.81003 -64.99562 36063 ft 373 kts 281°
2026-04-25 19:43 -33.79745 -65.05573 36064 ft 373 kts 281°
2026-04-25 19:44 -33.78478 -65.11618 36063 ft 373 kts 281°
2026-04-25 19:44 -33.77205 -65.17671 36063 ft 373 kts 281°
2026-04-25 19:45 -33.75933 -65.23712 36060 ft 373 kts 281°
2026-04-25 19:45 -33.74657 -65.29769 36103 ft 374 kts 281°
2026-04-25 19:46 -33.73374 -65.35823 36103 ft 374 kts 281°
2026-04-25 19:46 -33.72174 -65.41322 36105 ft 374 kts 282°
2026-04-25 19:47 -33.70982 -65.46343 36077 ft 375 kts 282°
2026-04-25 19:47 -33.69572 -65.52225 36084 ft 374 kts 282°
2026-04-25 19:48 -33.68236 -65.57846 36085 ft 374 kts 282°
2026-04-25 19:48 -33.67043 -65.62883 36055 ft 374 kts 282°
2026-04-25 19:49 -33.65860 -65.67882 36053 ft 374 kts 282°
2026-04-25 19:49 -33.64201 -65.74877 36054 ft 375 kts 282°
2026-04-25 19:50 -33.62053 -65.83908 36055 ft 375 kts 282°
2026-04-25 19:51 -33.60635 -65.89926 36048 ft 375 kts 281°
2026-04-25 19:51 -33.59208 -65.95941 36062 ft 375 kts 282°
2026-04-25 19:52 -33.57760 -66.01966 35997 ft 376 kts 282°
2026-04-25 19:52 -33.56310 -66.07988 36032 ft 375 kts 282°
2026-04-25 19:53 -33.54871 -66.13959 36045 ft 375 kts 282°
2026-04-25 19:53 -33.53422 -66.19960 36050 ft 375 kts 282°
2026-04-25 19:54 -33.51966 -66.25979 36056 ft 376 kts 282°
2026-04-25 19:54 -33.50507 -66.32000 36052 ft 376 kts 282°
2026-04-25 19:55 -33.49044 -66.37992 36056 ft 377 kts 283°
2026-04-25 19:55 -33.47224 -66.43901 36057 ft 379 kts 286°
2026-04-25 19:56 -33.45325 -66.49793 36052 ft 379 kts 285°
2026-04-25 19:56 -33.43446 -66.55681 36028 ft 377 kts 285°
2026-04-25 19:57 -33.41679 -66.61576 36022 ft 374 kts 282°
2026-04-25 19:57 -33.40215 -66.67555 36019 ft 374 kts 281°
2026-04-25 19:58 -33.38783 -66.73485 36023 ft 373 kts 282°
2026-04-25 19:58 -33.37325 -66.79460 35946 ft 375 kts 282°
2026-04-25 19:58 -33.36583 -66.82485 35434 ft 379 kts 282°
2026-04-25 19:59 -33.35838 -66.85509 34883 ft 376 kts 282°
2026-04-25 19:59 -33.35102 -66.88485 34435 ft 372 kts 282°
2026-04-25 19:59 -33.34372 -66.91434 34005 ft 368 kts 282°
2026-04-25 19:59 -33.33647 -66.94362 33480 ft 365 kts 282°
2026-04-25 20:00 -33.32929 -66.97259 33004 ft 361 kts 282°
2026-04-25 20:00 -33.32457 -66.99163 32696 ft 358 kts 282°
2026-04-25 20:00 -33.31522 -67.02930 32110 ft 354 kts 281°
2026-04-25 20:00 -33.30827 -67.05729 31671 ft 350 kts 281°
2026-04-25 20:01 -33.29451 -67.11263 30823 ft 347 kts 282°
2026-04-25 20:01 -33.28760 -67.14049 30418 ft 351 kts 282°
2026-04-25 20:01 -33.28065 -67.16835 29960 ft 348 kts 282°
2026-04-25 20:02 -33.27376 -67.19596 29464 ft 345 kts 282°
2026-04-25 20:02 -33.26692 -67.22326 28988 ft 341 kts 281°
2026-04-25 20:02 -33.26016 -67.25026 28546 ft 338 kts 281°
2026-04-25 20:02 -33.25322 -67.27716 27913 ft 341 kts 282°
2026-04-25 20:03 -33.24564 -67.30426 27104 ft 348 kts 283°
2026-04-25 20:03 -33.23772 -67.33177 26431 ft 351 kts 283°
2026-04-25 20:03 -33.22972 -67.35937 25912 ft 350 kts 283°
2026-04-25 20:03 -33.22181 -67.38673 25468 ft 348 kts 283°
2026-04-25 20:04 -33.21395 -67.41401 25035 ft 346 kts 283°
2026-04-25 20:04 -33.20618 -67.44111 24541 ft 345 kts 283°
2026-04-25 20:04 -33.19839 -67.46836 23997 ft 347 kts 283°
2026-04-25 20:04 -33.19058 -67.49569 23466 ft 348 kts 283°
2026-04-25 20:05 -33.18275 -67.52306 22948 ft 347 kts 283°
2026-04-25 20:05 -33.17496 -67.55024 22486 ft 345 kts 283°
2026-04-25 20:05 -33.16723 -67.57718 22029 ft 342 kts 283°
2026-04-25 20:05 -33.15963 -67.60369 21569 ft 341 kts 283°
2026-04-25 20:06 -33.15196 -67.63042 21087 ft 339 kts 283°
2026-04-25 20:06 -33.14433 -67.65699 20630 ft 338 kts 283°
2026-04-25 20:06 -33.13677 -67.68329 20075 ft 333 kts 283°
2026-04-25 20:06 -33.12924 -67.70945 19437 ft 333 kts 283°
2026-04-25 20:07 -33.12175 -67.73544 19010 ft 331 kts 283°
2026-04-25 20:07 -33.11550 -67.76163 18609 ft 325 kts 274°
2026-04-25 20:07 -33.11309 -67.78826 18208 ft 321 kts 270°
2026-04-25 20:07 -33.11143 -67.81476 17772 ft 320 kts 270°
2026-04-25 20:08 -33.10988 -67.84113 17370 ft 318 kts 270°
2026-04-25 20:08 -33.10828 -67.86732 16980 ft 315 kts 270°
2026-04-25 20:08 -33.10662 -67.89338 16604 ft 316 kts 270°
2026-04-25 20:08 -33.10488 -67.91954 16229 ft 317 kts 271°
2026-04-25 20:09 -33.10308 -67.94584 15851 ft 318 kts 271°
2026-04-25 20:09 -33.10126 -67.97177 15472 ft 316 kts 271°
2026-04-25 20:09 -33.09938 -67.99814 15091 ft 314 kts 271°
2026-04-25 20:09 -33.09755 -68.02370 14720 ft 313 kts 271°
2026-04-25 20:10 -33.09568 -68.04957 14350 ft 311 kts 271°
2026-04-25 20:10 -33.09381 -68.07525 13974 ft 310 kts 271°
2026-04-25 20:10 -33.09195 -68.10085 13577 ft 310 kts 272°
2026-04-25 20:10 -33.09008 -68.12637 13176 ft 308 kts 272°
2026-04-25 20:11 -33.08822 -68.15179 12792 ft 307 kts 272°
2026-04-25 20:11 -33.08635 -68.17708 12425 ft 305 kts 272°
2026-04-25 20:11 -33.08449 -68.20227 12068 ft 305 kts 272°
2026-04-25 20:11 -33.08263 -68.22756 11698 ft 307 kts 273°
2026-04-25 20:12 -33.08074 -68.25301 11327 ft 308 kts 273°
2026-04-25 20:12 -33.07885 -68.27839 10963 ft 307 kts 273°
2026-04-25 20:12 -33.07696 -68.30371 10600 ft 306 kts 273°
2026-04-25 20:12 -33.07635 -68.31184 10516 ft 305 kts 274°
2026-04-25 20:13 -33.07325 -68.35301 10291 ft 290 kts 274°
2026-04-25 20:13 -33.07149 -68.37627 10167 ft 282 kts 274°
2026-04-25 20:13 -33.06976 -68.39923 10045 ft 274 kts 274°
2026-04-25 20:13 -33.06805 -68.42180 9766 ft 273 kts 274°
2026-04-25 20:14 -33.06636 -68.44424 9509 ft 270 kts 274°
2026-04-25 20:14 -33.06467 -68.46641 9266 ft 268 kts 274°
2026-04-25 20:14 -33.06301 -68.48836 9040 ft 264 kts 275°
2026-04-25 20:14 -33.06135 -68.51016 8762 ft 264 kts 275°
2026-04-25 20:15 -33.05968 -68.53200 8493 ft 264 kts 276°
2026-04-25 20:15 -33.05802 -68.55375 8223 ft 264 kts 276°
2026-04-25 20:15 -33.05634 -68.57549 8048 ft 260 kts 276°
2026-04-25 20:15 -33.05473 -68.59637 7994 ft 245 kts 276°
2026-04-25 20:16 -33.05323 -68.61597 7922 ft 230 kts 275°
2026-04-25 20:16 -33.05262 -68.63426 7797 ft 212 kts 271°
2026-04-25 20:16 -33.05253 -68.65120 7676 ft 197 kts 271°
2026-04-25 20:16 -33.05246 -68.66692 7576 ft 183 kts 271°
2026-04-25 20:17 -33.05239 -68.67987 7449 ft 181 kts 271°
2026-04-25 20:17 -33.05228 -68.69488 7282 ft 182 kts 272°
2026-04-25 20:17 -33.05215 -68.70983 7111 ft 183 kts 272°
2026-04-25 20:17 -33.05201 -68.72525 6920 ft 184 kts 272°
2026-04-25 20:18 -33.05186 -68.74052 6732 ft 185 kts 272°
2026-04-25 20:18 -33.05171 -68.75569 6534 ft 178 kts 272°
2026-04-25 20:18 -33.05156 -68.77003 6320 ft 169 kts 273°
2026-04-25 20:18 -33.05003 -68.78343 6101 ft 165 kts 300°
2026-04-25 20:19 -33.04210 -68.79304 5992 ft 165 kts 332°
2026-04-25 20:19 -33.03077 -68.79564 5827 ft 170 kts 360°
2026-04-25 20:19 -33.01915 -68.79572 5645 ft 164 kts 357°
2026-04-25 20:19 -33.00770 -68.79618 5494 ft 169 kts 359°
2026-04-25 20:20 -32.99611 -68.79622 5282 ft 165 kts
2026-04-25 20:20 -32.98475 -68.79607 5069 ft 162 kts
2026-04-25 20:20 -32.97357 -68.79586 4875 ft 161 kts
2026-04-25 20:20 -32.96231 -68.79563 4660 ft 163 kts
2026-04-25 20:21 -32.95101 -68.79539 4449 ft 161 kts
2026-04-25 20:21 -32.93987 -68.79516 4239 ft 160 kts
2026-04-25 20:21 -32.92868 -68.79492 4014 ft 160 kts
2026-04-25 20:21 -32.91759 -68.79469 3826 ft 160 kts
2026-04-25 20:22 -32.90645 -68.79446 3599 ft 159 kts
2026-04-25 20:22 -32.90287 -68.79438 3550 ft 159 kts
2026-04-25 20:22 -32.88442 -68.79401 3209 ft 157 kts
2026-04-25 20:22 -32.87359 -68.79388 2966 ft 155 kts
2026-04-25 20:23 -32.86275 -68.79371 2789 ft 157 kts
2026-04-25 20:23 -32.85182 -68.79340 2581 ft 157 kts
2026-04-25 20:23 -32.84101 -68.79312 2401 ft 150 kts
2026-04-25 20:23 -32.83148 -68.79291 2380 ft 118 kts
2026-04-25 20:24 -32.82478 -68.79278 2382 ft 75 kts
2026-04-25 20:24 -32.82160 -68.79271 2378 ft 25 kts
2026-04-25 20:24 -32.82000 -68.79272 2378 ft 20 kts 346°
2026-04-25 20:24 -32.81932 -68.79340 2378 ft 12 kts 292°
2026-04-25 20:25 -32.81930 -68.79428 2380 ft 10 kts 269°
2026-04-25 20:25 -32.81970 -68.79487 2380 ft 10 kts 197°
2026-04-25 20:25 -32.82036 -68.79493 2380 ft 9 kts 182°
2026-04-25 20:25 -32.82101 -68.79493 2380 ft 9 kts 180°
2026-04-25 20:26 -32.82164 -68.79494 2380 ft 9 kts 181°
2026-04-25 20:26 -32.82184 -68.79494 2380 ft 9 kts 181°
2026-04-25 20:26 -32.82285 -68.79496 2380 ft 8 kts 181°
2026-04-25 20:26 -32.82343 -68.79497 2380 ft 8 kts 181°
2026-04-25 20:27 -32.82400 -68.79499 2380 ft 8 kts 181°
2026-04-25 20:27 -32.82454 -68.79500 2380 ft 8 kts 180°
2026-04-25 20:27 -32.82507 -68.79501 2380 ft 7 kts 180°
2026-04-25 20:27 -32.82557 -68.79502 2380 ft 7 kts 181°
2026-04-25 20:28 -32.82608 -68.79503 2380 ft 8 kts 181°
2026-04-25 20:28 -32.82659 -68.79531 2380 ft 9 kts 238°
2026-04-25 20:28 -32.82675 -68.79610 2380 ft 11 kts 264°
2026-04-25 20:28 -32.82686 -68.79701 2381 ft 11 kts 218°
2026-04-25 20:29 -32.82743 -68.79708 2381 ft 2 kts 181°
2026-04-25 20:29 -32.82756 -68.79721 2380 ft 3 kts 243°
2026-04-25 20:29 -32.82762 -68.79752 2380 ft 5 kts 264°
2026-04-25 20:29 -32.82764 -68.79774 2380 ft 2 kts 265°
2026-04-25 20:30 -32.82764 -68.79778 2380 ft 0 kts 265°